User: anonymous   Login
Location: Drayton Valley
(53.2170°N, 114.9830°W)
Time: 15:48:47
(UTC-06:00)
Language:

MOZ.5/SAFIR/RUBIN 5/SL-8 - Orbit

View from above orbital plane
View from above orbital plane
View from above satellite
View from above satellite

Ground track
Ground track

The orbit data is extracted from the following two-line orbital elements,

1 28898U 05043G   16152.07976786  .00000100  00000-0  30024-4 0  9996
2 28898  97.8778 313.6448 0018736 312.1489  47.8119 14.60099397564075
Epoch (UTC): 31 May 2016 01:54:51
Eccentricity: 0.0018736
inclination: 97.8778°
perigee height: 679 km
apogee height: 706 km
right ascension of ascending node: 313.6448°
argument of perigee: 312.1489°
revolutions per day: 14.60099397
mean anomaly at epoch: 47.8119°
orbit number at epoch: 56407

The dashed part of the orbit path shows where the satellite is in the earth's shadow,  

DLR